01.05.2024;13:00;14
01.05.2024;12:00;13
01.05.2024;11:00;8
01.05.2024;10:00;10
01.05.2024;09:00;24
01.05.2024;08:00;33
01.05.2024;07:00;46
01.05.2024;06:00;46
01.05.2024;05:00;50
01.05.2024;04:00;53
01.05.2024;03:00;47
01.05.2024;02:00;42
01.05.2024;01:00;32
30.04.2024;24:00;41
30.04.2024;23:00;40
30.04.2024;22:00;42
30.04.2024;21:00;38
30.04.2024;20:00;39
30.04.2024;19:00;35
30.04.2024;18:00;38
30.04.2024;17:00;34
30.04.2024;16:00;28
30.04.2024;15:00;31
30.04.2024;14:00;23
30.04.2024;13:00;15
30.04.2024;12:00;11
30.04.2024;11:00;21
30.04.2024;10:00;22
30.04.2024;09:00;29
30.04.2024;08:00;30
30.04.2024;07:00;23
30.04.2024;06:00;21
30.04.2024;05:00;20
30.04.2024;04:00;21
30.04.2024;03:00;13
30.04.2024;02:00;13
30.04.2024;01:00;19
29.04.2024;24:00;23
29.04.2024;23:00;15
29.04.2024;22:00;14
29.04.2024;21:00;18
29.04.2024;20:00;11
29.04.2024;19:00;8
29.04.2024;18:00;5
29.04.2024;17:00;6
29.04.2024;16:00;9
29.04.2024;15:00;11
29.04.2024;14:00;8
29.04.2024;13:00;5
29.04.2024;12:00;8
29.04.2024;11:00;15
29.04.2024;10:00;13
29.04.2024;09:00;15
29.04.2024;08:00;8
29.04.2024;07:00;6
29.04.2024;06:00;6
29.04.2024;05:00;5
29.04.2024;04:00;5
29.04.2024;03:00;5
29.04.2024;02:00;4
29.04.2024;01:00;8
28.04.2024;24:00;5
28.04.2024;23:00;5
28.04.2024;22:00;7
28.04.2024;21:00;6
28.04.2024;20:00;6
28.04.2024;19:00;6
28.04.2024;18:00;7
28.04.2024;17:00;6
28.04.2024;16:00;5
28.04.2024;15:00;6
28.04.2024;14:00;8
28.04.2024;13:00;7
28.04.2024;12:00;4
28.04.2024;11:00;4
28.04.2024;10:00;8
28.04.2024;09:00;9
28.04.2024;08:00;11
28.04.2024;07:00;13
28.04.2024;06:00;20
28.04.2024;05:00;13
28.04.2024;04:00;12
28.04.2024;03:00;9
28.04.2024;02:00;7
28.04.2024;01:00;16
27.04.2024;24:00;16
27.04.2024;23:00;12
27.04.2024;22:00;12
27.04.2024;21:00;9
27.04.2024;20:00;3
27.04.2024;19:00;2
27.04.2024;18:00;4
27.04.2024;17:00;5
27.04.2024;16:00;7
27.04.2024;15:00;6
27.04.2024;14:00;2
27.04.2024;13:00;2
27.04.2024;12:00;3
27.04.2024;11:00;9
27.04.2024;10:00;13
27.04.2024;09:00;16
27.04.2024;08:00;16
27.04.2024;07:00;13
27.04.2024;06:00;16
27.04.2024;05:00;13
27.04.2024;04:00;14
27.04.2024;03:00;24
27.04.2024;02:00;32
27.04.2024;01:00;30
26.04.2024;24:00;20
26.04.2024;23:00;19
26.04.2024;22:00;17
26.04.2024;21:00;13
26.04.2024;20:00;12
26.04.2024;19:00;11
26.04.2024;18:00;10
26.04.2024;17:00;13
26.04.2024;16:00;11
26.04.2024;15:00;10
26.04.2024;14:00;9
26.04.2024;13:00;10
26.04.2024;12:00;16
26.04.2024;11:00;12
26.04.2024;10:00;15
26.04.2024;09:00;17
26.04.2024;08:00;15
26.04.2024;07:00;16
26.04.2024;06:00;9
26.04.2024;05:00;9
26.04.2024;04:00;7
26.04.2024;03:00;3
26.04.2024;02:00;5
26.04.2024;01:00;6
